Location: Unspecified
(50.1700°N, 6.8600°E)
Time: 05:27:22
(UTC+00:00)

Meteor 1-4 Rocket - Pass Details

Date: 24 January 2019
Orbit: 449 x 504 km, 81.2° (Epoch: 18 October)

Event Time Altitude Azimuth Distance (km) Brightness Sun altitude
Exits shadow 06:14:06 - 337° (NNW) 2,244 5.6 -10.1°
Reaches altitude 10° 06:15:25 10° 331° (NNW) 1,732 4.9 -9.9°
Maximum altitude 06:18:52 34° 266° (W) 854 3.3 -9.4°
Drops below altitude 10° 06:22:16 10° 201° (SSW) 1,702 5.3 -8.9°
Sets 06:24:29 0° 192° (SSW) 2,572 6.4 -8.5°
